Vertical_Velocity
-0 2 1 -1 2 -2 -2 3 -2 -2 -3 1 -4 -2 -1 -1 -1 -2 -3 -3 -3 -4 -4 -3 -2 -2 -0 -2 -1 2 1 2
5 -10 -1 -2 0 -6 -3 -0 -2 -3 -0 -3 -4 -2 -4 -2 -1 -1 -1 -1 -3 -3 -1 0 -1 -2 -3 -2 -1 0 -1 -2
2 -5 -0 2 3 2 1 -2 -1 -3 -2 -2 -0 0 1 1 0 1 0 1 1 2 1 -0 -2 -1 -1 -2 -4 -3 -3 -1
-3 2 0 -1 6 -0 -4 -3 -3 1 -0 -0 -1 -1 0 0 4 1 1 1 0 2 2 1 -0 -0 2 -0 -2 0 -2 -3
-4 -3 -0 -3 4 -4 -2 -0 -1 2 -0 -1 -2 -1 -0 0 -1 -1 -1 0 -4 -0 -0 1 0 1 -1 0 4 4 -0 -1
4 -2 -0 -1 -2 -3 -3 0 -1 2 -0 -0 -0 -1 -2 -1 -1 -0 1 0 1 0 -2 -0 -2 -3 -2 -3 -3 -1 1 2
-3 -0 -2 -0 -1 1 0 1 -1 0 -0 0 1 1 2 1 1 -0 0 -0 -0 1 -0 -1 -1 1 3 3 1 2 -1 -2
-1 -0 -3 -0 -0 -2 1 1 1 2 0 -0 1 2 2 1 -3 -3 -1 -2 -3 -2 -1 -1 -1 -1 -2 -2 -2 -2 0 2
-0 -4 -0 -1 -0 -0 0 -0 -1 -0 -1 1 -1 -0 1 1 -1 -1 -0 -2 -2 -2 -1 -1 -2 -2 -1 -2 -2 -2 -2 -1
-1 1 2 1 -1 -1 -1 -1 -1 -1 -0 -0 2 -1 0 -1 -1 -3 0 2 1 2 1 1 1 -0 -0 -3 -1 -2 -4 1
-2 0 -1 -1 2 -3 -0 -1 -1 -1 -1 -3 -1 -1 1 1 -1 -2 -3 0 -0 -3 -1 -7 1 2 -2 -4 4 -4 -6 -4
-2 -0 -1 -2 -5 -1 -3 -2 -1 1 -1 1 -2 -3 -3 -1 -2 0 -3 -3 0 1 -3 3 -4 3 -1 -1 -6 -2 6 -1
-1 1 -1 -2 -2 -1 -1 0 -2 -1 0 0 -3 5 -3 0 2 3 4 1 2 5 -4 -4 7 -3 -10 2 -0 -5 -6 2
-2 0 1 1 2 -2 -0 -1 -1 -1 -3 0 -2 1 0 -1 -5 -2 -1 -3 -2 -3 -2 -4 -6 1 -8 -11 -3 -7 3 -10
2 2 2 2 -0 6 -1 0 1 -1 2 -0 1 -4 -3 -5 -3 -3 -2 -7 -3 0 -0 -1 -9 9 3 -8 -7 -8 8 19
1 1 1 5 6 -2 1 2 0 -2 -3 -2 2 1 1 -1 -5 -6 -4 -4 -5 -4 -3 -2 -2 -7 8 8 -8 -2 -3 -16
1 -0 1 3 -2 1 1 -1 2 1 0 0 -1 0 -2 -2 -4 2 2 -1 -2 -3 -3 3 1 -6 -3 -1 0 3 1 -7
1 1 -5 1 1 -1 4 3 1 -2 -2 -2 -1 -1 -1 0 -2 -3 -3 -4 -0 -7 5 -2 0 5 0 -1 -2 -1 -0 -2
0 1 -0 -10 6 3 -3 -2 1 1 -1 -2 0 2 1 0 -1 -3 -2 0 0 -7 0 -4 2 -2 -0 4 4 -0 -2 2
1 -2 -1 -3 -4 -1 3 -3 -2 0 -1 -1 -2 -2 -2 -1 -3 -1 -7 -5 -1 -4 -6 -0 -10 2 3 10 7 3 -1 -2
Height
5821 5821 5821 5821 5819 5818 5818 5817 5815 5813 5811 5810 5808 5806 5805 5803 5800 5799 5797 5796 5794 5792 5789 5788 5787 5785 5783 5781 5780 5779 5777 5776
5821 5823 5821 5820 5819 5817 5817 5816 5813 5812 5810 5807 5805 5803 5801 5799 5797 5795 5793 5791 5789 5787 5786 5784 5783 5781 5779 5777 5776 5774 5773 5772
5821 5820 5821 5819 5817 5817 5815 5813 5811 5808 5806 5804 5802 5800 5798 5796 5793 5792 5790 5787 5784 5782 5780 5779 5777 5776 5774 5773 5772 5771 5770 5768
5821 5820 5818 5817 5815 5813 5811 5809 5807 5805 5803 5801 5798 5796 5794 5791 5789 5786 5784 5781 5778 5776 5774 5773 5771 5770 5769 5767 5766 5766 5764 5764
5819 5818 5816 5815 5812 5810 5808 5806 5804 5802 5800 5797 5794 5791 5789 5786 5783 5780 5778 5775 5772 5770 5768 5766 5764 5762 5760 5760 5759 5758 5757 5757
5816 5816 5814 5811 5809 5806 5804 5801 5799 5796 5794 5791 5789 5786 5783 5780 5777 5774 5771 5769 5766 5763 5760 5759 5756 5754 5752 5751 5751 5749 5748 5748
5814 5811 5809 5807 5805 5802 5799 5796 5793 5790 5787 5785 5783 5779 5777 5774 5771 5767 5763 5761 5758 5755 5752 5750 5749 5747 5745 5743 5741 5740 5739 5738
5810 5808 5807 5803 5800 5796 5793 5791 5788 5784 5781 5778 5776 5773 5769 5766 5763 5758 5755 5752 5749 5747 5744 5742 5740 5739 5736 5734 5733 5731 5730 5730
5807 5804 5802 5799 5795 5791 5787 5784 5781 5778 5774 5771 5768 5765 5761 5757 5753 5749 5746 5743 5741 5738 5735 5733 5731 5729 5727 5725 5724 5723 5722 5720
5802 5800 5797 5793 5789 5785 5781 5777 5774 5770 5767 5763 5760 5755 5751 5747 5743 5739 5736 5733 5730 5727 5724 5722 5720 5718 5716 5714 5712 5711 5710 5709
5797 5793 5789 5786 5782 5777 5774 5770 5766 5762 5758 5753 5748 5744 5741 5737 5733 5730 5726 5723 5719 5716 5712 5709 5706 5703 5701 5698 5699 5698 5696 5694
5790 5787 5783 5779 5774 5771 5767 5763 5758 5754 5749 5745 5741 5736 5732 5727 5723 5719 5715 5711 5708 5704 5701 5698 5694 5690 5687 5685 5683 5682 5681 5680
5784 5781 5776 5772 5768 5764 5760 5755 5749 5744 5739 5735 5730 5726 5722 5718 5713 5708 5704 5699 5694 5690 5686 5683 5680 5675 5672 5671 5670 5667 5664 5663
5779 5774 5770 5766 5761 5756 5752 5746 5740 5735 5729 5725 5720 5716 5710 5705 5699 5694 5689 5684 5680 5675 5670 5667 5664 5660 5654 5650 5651 5651 5647 5643
5772 5768 5764 5759 5754 5748 5743 5737 5731 5726 5721 5716 5710 5704 5698 5692 5685 5680 5675 5669 5664 5659 5653 5649 5646 5644 5635 5629 5628 5628 5627 5626
5765 5760 5756 5751 5745 5739 5734 5728 5722 5715 5709 5703 5697 5690 5685 5678 5672 5665 5659 5653 5647 5641 5635 5630 5623 5623 5617 5611 5606 5607 5606 5605
5756 5751 5746 5741 5734 5729 5723 5716 5709 5702 5696 5690 5683 5677 5669 5662 5654 5648 5640 5633 5627 5621 5615 5610 5603 5597 5594 5589 5585 5584 5579 5580
5747 5741 5735 5730 5724 5717 5710 5703 5697 5690 5683 5674 5667 5660 5653 5645 5637 5628 5620 5612 5605 5598 5593 5587 5582 5574 5568 5563 5559 5557 5554 5553
5738 5732 5725 5716 5711 5705 5697 5690 5683 5675 5667 5659 5651 5643 5634 5626 5617 5607 5599 5590 5580 5574 5570 5561 5558 5548 5541 5536 5531 5527 5524 5523
5727 5720 5713 5706 5699 5691 5683 5675 5668 5659 5650 5642 5633 5625 5615 5606 5596 5585 5575 5566 5555 5547 5539 5530 5522 5520 5514 5507 5501 5497 5494 5491